ONEWEB-0673, 55832

Orbit data source: Space-Track

ONEWEB-0673, 55832 is a payload satellite owned by One Web (NAA) (UK) in LEO that was launched on Thu, 09 Mar 2023 UTC via an FALCON 9 launch vehicle from the Air Force Eastern Test Range (AFETR). Payload-class satellites include a variety of spacecraft equipped with specific instruments for various scientific and technological missions. These include communications satellites like Starlink; space stations such as the ISS; scientific satellites like the Hubble; Earth observation satellites from companies like Planet Labs, Umbra, and HawkEye 360; GPS; miniature CubeSats for education and research; and military/defense satellites.

Loading next visibility...
Identifier
55832, 2023-029AN
Orbit
LEO
Country
Flag of UKUK
Related business
Manufacturer
One Web
Mission
Operational Commercial Communications
Bus & Motor
ARROW, Unknown motor
Mass
148 kg wet, ~140 kg dry
Launch date (UTC)
2023-03-09 (3 years ago)
Launch vehicle
FALCON 9
Launch site
Air Force Eastern Test Range (AFETR)
Object type
Payload
Rocket body
Debris
Shape & HBR
Trap Box + 2 Pan, 6.7 m
Radar Cross Section
3.464 m², Large (>1 m²)

Expand to show TLE details & history
Last TLE update: 2 days ago

TLE from 2 days ago
0 ONEWEB-0673
1 55832U 23029AN  26171.37652676  .00000091  00000-0  19508-3 0  9994
2 55832  87.9181 304.3318 0001737  98.0238 262.1092 13.19727727159327
Epoch: 2026-06-20T09:02Z
TLE epoch observation values (Epoch: 2026-06-20T09:02:11.912Z)
Latitude
0.00002°
Longitude
-99.80987°
Altitude
1,188.842 km
Speed
7.259 km/s
True Right ascension
20h 17m 19s
True Declination
0° 00' 00"
Sunlit
Object was in full shadow at epoch
Visualization orbit readout
Latitude
Unknown
Longitude
Unknown
Altitude
Unknown
Speed
Unknown
Apparent Right ascension
Unknown
Apparent Declination
Unknown
Sunlit
N/A
Visualization observer readout
Local Sidereal Time
21:35:37
Azimuth
Unknown
Elevation
Unknown
Doppler factor
Unknown
Orbital elements
Apogee altitude
1,184.179 km
Perigee altitude
1,181.552 km
Semi-major axis
7,561.003 km
Eccentricity
0.00017
Inclination
87.9181°
RAAN
304.3318°
Arg. of periapsis
98.0238°
True anomaly
262.08948°
Mean anomaly
262.1092°
Eccentric anomaly
262.09934°
Mean motion
3.30122 °/min
Orbital period
109.05 mins
BSTAR
0.00019508
Loading maneuver chart data...
Computing Atmospheric mass density...
Loading historical data...
Loading historical data...
Loading historical data...
Loading historical data...
Loading historical data...
Loading historical data...
Loading historical data...

Documentation

Showing up to 5 results
|